[[{"header":{"parameterUnit":"m.s-1","parameterCategory":1,"la1":30.2991,"la2":30.254,"lo1":-89.0895,"lo2":-89.0444,"dy":0.0017,"dx":0.0017,"nx":28,"ny":28,"refTime":"2023-07-31T21:00:00:Z","depth":0,"parameterNumber":2,"parameterNumberName":"U-component_of_WINDS"},"data":[0,0,0,0,0,0,0,0,0,0,0,0,0,0,0,0,0,0,0,0,0,0,0,0,0,0,0,0,0,0,0,0,0,0,0,0,0,0,0,0,0,0,0,0,0,0,0,0,0,0,0,0,0,0,0,0,0,0,0.6899,0.6899,0,0.6933,0.6934,0.6934,0.685,0.6847,0.6844,0.6842,0.6884,0.6888,0.6891,0,0,0,0,0,0,0,0,0,0,0,0,0,0.6769,0.6771,0.6899,0.6899,0.69,0.6933,0.6934,0.6934,0.685,0.6847,0.6843,0.684,0.6883,0.6887,0.6891,0,0,0,0,0,0,0,0,0,0,0,0,0,0.6817,0.6772,0.6899,0.6862,0.6859,0.6933,0.6934,0.6934,0.6851,0.6847,0.6843,0.6839,0.6881,0.6887,0.6892,0.7006,0,0,0.6909,0.6911,0,0,0,0,0,0,0,0,0.6814,0.6821,0.6867,0.6864,0.6861,0.6883,0.6903,0.6959,0.6852,0.6854,0.6842,0.6837,0.6887,0.6892,0.6908,0.7008,0.701,0.6909,0.6913,0.6915,0.6916,0,0,0,0,0,0,0,0.6811,0.682,0.6913,0.6868,0.6864,0.6846,0.6848,0.6913,0.6893,0.6853,0.6847,0.6852,0.6885,0.6903,0.6908,0.7011,0.6909,0.6914,0.6917,0.6919,0.721,0.7214,0,0,0,0,0,0,0.6811,0.6817,0.6912,0.6914,0.6827,0.6851,0.6854,0.688,0.6892,0.689,0.6856,0.6848,0.6895,0.6902,0.6909,0.7046,0.6915,0.692,0.6923,0.7206,0.7211,0.7216,0,0,0,0,0,0,0.6809,0.682,0.691,0.6864,0.6874,0.6858,0.6888,0.6883,0.69,0.6894,0.689,0.6877,0.6892,0.6901,0.6983,0.7046,0.6922,0.6927,0.72,0.7207,0.7213,0.7319,0,0,0,0,0,0,0.6805,0.682,0.6861,0.6865,0.6877,0.6982,0.6892,0.6886,0.6909,0.6899,0.6912,0.6911,0.689,0.6975,0.6988,0.7051,0.6932,0.7195,0.7203,0.7211,0.731,0.7329,0.7345,0,0,0,0,0,0.6801,0.6891,0.6864,0.6876,0.6928,0.6985,0.6992,0.6964,0.6914,0.6957,0.6953,0.691,0.7036,0.6984,0.6998,0.7064,0.7191,0.7201,0.7211,0.7302,0.7325,0.7344,0,0,0,0,0,0,0.6897,0.6891,0.6861,0.6954,0.6971,0.6971,0.7024,0.6988,0.7021,0.7012,0.6977,0.6981,0.707,0.7075,0.7017,0.7177,0.7106,0.7119,0.717,0.7192,0.7209,0.7207,0.6936,0,0,0,0,0,0.6929,0.6973,0.6966,0.705,0.7059,0.7041,0.7064,0.7041,0.7058,0.7065,0.7067,0.7087,0.7131,0.7161,0.7202,0.7309,0.7313,0.7362,0.7379,0.7393,0.7406,0.7466,0.7489,0.7249,0.7249,0.7248,0,0,0.6996,0.6997,0.7028,0.7069,0.7079,0.7129,0.7047,0.7103,0.7141,0.7074,0.7152,0.7154,0.7174,0.727,0.7312,0.7277,0.7473,0.7406,0.7417,0.7423,0.7479,0.7502,0.7522,0.7255,0.7254,0.7253,0,0,0.7143,0.7148,0.7219,0.723,0.7246,0.7233,0.725,0.7256,0.7254,0.733,0.7282,0.7327,0.7404,0.7421,0.7439,0.7594,0.7558,0.7608,0.77,0.7759,0.7778,0.7794,0.7853,0.7874,0.7621,0.7621,0.7621,0,0.7225,0.7296,0.726,0.732,0.7341,0.728,0.7354,0.7367,0.7397,0.7414,0.7372,0.7468,0.7477,0.7577,0.7615,0.7631,0.7652,0.7608,0.7777,0.7794,0.7809,0.7864,0.7886,0.7627,0.7627,0.7626,0.7625,0,0.7397,0.7447,0.7503,0.7531,0.7558,0.7624,0.7601,0.7633,0.7607,0.76,0.768,0.7688,0.773,0.7752,0.7728,0.785,0.7827,0.7782,0.7711,0.7839,0.789,0.7911,0.7636,0.7634,0.7632,0.7631,0,0,0.7608,0.7614,0.7636,0.7649,0.7662,0.7701,0.7766,0.7804,0.7834,0.7856,0.7912,0.7977,0.7936,0.7958,0.7935,0.7987,0.8112,0.7935,0.7936,0.7971,0.825,0.8286,0.8311,0.8087,0.809,0.8093,0.8249,0,0.7756,0.7864,0.7835,0.7945,0.7992,0.7936,0.7993,0.8009,0.8003,0.8045,0.8039,0.8088,0.8028,0.8041,0.8089,0.8087,0.8169,0.8075,0.8141,0.8144,0.8141,0.8337,0.8375,0.8522,0.8269,0.8272,0.8275,0,0.7943,0.7971,0.8085,0.8091,0.811,0.8162,0.8196,0.8235,0.8253,0.8245,0.8269,0.8237,0.8304,0.823,0.8323,0.826,0.8285,0.8289,0.8294,0.8301,0.8219,0.8353,0.8567,0.8591,0.8305,0.8303,0.8301,0,0.8089,0.8155,0.8232,0.8244,0.8253,0.8291,0.8297,0.831,0.8336,0.8366,0.8383,0.8422,0.8444,0.8476,0.8456,0.8403,0.8554,0.8477,0.8553,0.8554,0.8589,0.8588,0.8814,0.8601,0.8601,0.86,0.86,0,0.8259,0.8332,0.8298,0.8346,0.8427,0.8393,0.8475,0.8474,0.8487,0.8536,0.8489,0.8537,0.8506,0.8552,0.8537,0.8619,0.8628,0.8626,0.8622,0.8632,0.8633,0.8651,0.8641,0.8606,0.8605,0.8604,0.8603,0,0.8437,0.8416,0.8497,0.8498,0.8501,0.8561,0.8563,0.8609,0.8599,0.8662,0.8675,0.8662,0.8713,0.8696,0.8752,0.8741,0.8846,0.8827,0.884,0.8836,0.8913,0.8908,0.9161,0.9194,0.8957,0.896,0.8961,0,0.8548,0.8602,0.8609,0.8637,0.8646,0.8693,0.8718,0.8687,0.8717,0.8741,0.8785,0.8832,0.8868,0.8954,0.8951,0.8994,0.8978,0.9064,0.8984,0.8993,0.8983,0.8981,0.8988,0.9081,0.9083,0.9086,0.9087,0,0.8748,0.8736,0.8773,0.8808,0.884,0.8866,0.8889,0.8915,0.8886,0.8922,0.8973,0.9001,0.9057,0.9106,0.9145,0.9153,0.9118,0.9112,0.9132,0.9145,0.9151,0.9152,0.8886,0.9107,0.9105,0.9104,0.9103,0.9102,0.8898,0.8945,0.8957,0.9001,0.9015,0.9037,0.9081,0.9076,0.9118,0.916,0.9139,0.92,0.9218,0.9266,0.928,0.9328,0.9295,0.9324,0.9332,0.934,0.9352,0.9141,0.9335,0.9334,0.9334,0.9333,0.9333,0,0.9099,0.9104,0.9145,0.9177,0.9213,0.9172,0.9195,0.9228,0.9281,0.93,0.9336,0.9396,0.9443,0.9443,0.9488,0.9527,0.9512,0.954,0.9538,0.9542,0.9377,0.9356,0.9551,0.9551,0.9551,0.9551,0.9551,0.9551,0.9208,0.9286,0.9275,0.936,0.9364,0.9421,0.9438,0.946,0.9475,0.9543,0.9581,0.958,0.9592,0.9637,0.968,0.9678,0.9699,0.9734,0.9727,0.9574,0.9553,0.9532,0.9513,0.9738,0.9738,0.9888,0.989,0.9891]},{"header":{"parameterUnit":"m.s-1","parameterCategory":1,"la1":30.2991,"la2":30.254,"lo1":-89.0895,"lo2":-89.0444,"dy":0.0017,"dx":0.0017,"nx":28,"ny":28,"refTime":"2023-07-31T21:00:00:Z","depth":0,"parameterNumber":3,"parameterNumberName":"V-component_of_WINDS"},"data":[0,0,0,0,0,0,0,0,0,0,0,0,0,0,0,0,0,0,0,0,0,0,0,0,0,0,0,0,0,0,0,0,0,0,0,0,0,0,0,0,0,0,0,0,0,0,0,0,0,0,0,0,0,0,0,0,0,0,1.2016,1.2016,0,1.2018,1.2018,1.2018,1.1967,1.1966,1.1965,1.1964,1.1964,1.1965,1.1966,0,0,0,0,0,0,0,0,0,0,0,0,0,1.1965,1.1966,1.2016,1.2016,1.2016,1.2018,1.2018,1.2018,1.1968,1.1966,1.1964,1.1963,1.1963,1.1965,1.1966,0,0,0,0,0,0,0,0,0,0,0,0,0,1.1979,1.1967,1.2016,1.1991,1.1989,1.2018,1.2018,1.2018,1.1968,1.1966,1.1964,1.1962,1.1963,1.1965,1.1967,1.2019,0,0,1.1972,1.1973,0,0,0,0,0,0,0,0,1.1978,1.1981,1.1995,1.1993,1.1991,1.199,1.2,1.2018,1.1969,1.1976,1.1963,1.1961,1.1974,1.1975,1.198,1.2019,1.2019,1.1973,1.1974,1.1975,1.1975,0,0,0,0,0,0,0,1.1977,1.1981,1.2017,1.1995,1.1993,1.1979,1.1979,1.2003,1.1986,1.1975,1.1972,1.1973,1.1973,1.1978,1.1979,1.2019,1.1972,1.1974,1.1975,1.1976,1.2095,1.2097,0,0,0,0,0,0,1.198,1.198,1.2017,1.2017,1.1979,1.1981,1.1981,1.1993,1.1986,1.1983,1.1974,1.197,1.1976,1.1977,1.1979,1.2036,1.1974,1.1976,1.1977,1.2093,1.2096,1.2098,0,0,0,0,0,0,1.1979,1.1984,1.2017,1.1997,1.2001,1.1984,1.1998,1.1994,1.1999,1.1985,1.1982,1.1983,1.1974,1.1977,1.2008,1.2035,1.1977,1.1979,1.2091,1.2094,1.2097,1.2152,0,0,0,0,0,0,1.1978,1.1984,1.2005,1.1998,1.2002,1.2047,1.1999,1.1995,1.2003,1.1997,1.1993,1.199,1.1973,1.2006,1.201,1.2037,1.198,1.2088,1.2092,1.2096,1.2148,1.2157,1.2165,0,0,0,0,0,1.1977,1.2021,1.2006,1.2011,1.2028,1.2049,1.2051,1.2031,1.2005,1.2025,1.2015,1.199,1.2032,1.2009,1.2014,1.2042,1.2086,1.2091,1.2096,1.2144,1.2155,1.2164,0,0,0,0,0,0,1.2032,1.202,1.2003,1.2048,1.2049,1.204,1.2065,1.2044,1.2053,1.2047,1.2021,1.2021,1.2055,1.2052,1.2027,1.2089,1.2054,1.206,1.209,1.21,1.2108,1.2107,1.1982,0,0,0,0,0,1.2049,1.2068,1.2057,1.2097,1.2098,1.2082,1.209,1.2074,1.2075,1.2076,1.2069,1.207,1.2082,1.2092,1.2103,1.2148,1.2144,1.2169,1.2177,1.2184,1.2188,1.2207,1.2217,1.2113,1.2113,1.2113,0,0,1.2085,1.2081,1.2095,1.2108,1.2107,1.2125,1.2083,1.2105,1.2117,1.2079,1.2107,1.2102,1.2101,1.2138,1.2154,1.2137,1.2216,1.219,1.2195,1.2196,1.2213,1.2223,1.2231,1.2116,1.2115,1.2115,0,0,1.2159,1.216,1.2191,1.2191,1.219,1.2178,1.2186,1.2179,1.2174,1.2202,1.2172,1.2187,1.2211,1.221,1.2213,1.2283,1.2258,1.2288,1.233,1.2349,1.2357,1.2364,1.2385,1.2393,1.2293,1.2293,1.2293,0,1.2204,1.2231,1.221,1.2232,1.2237,1.2203,1.2232,1.2233,1.2237,1.224,1.222,1.2247,1.2244,1.2279,1.2295,1.23,1.2305,1.2287,1.2357,1.2364,1.237,1.239,1.2399,1.2296,1.2296,1.2295,1.2295,0,1.2283,1.2303,1.2328,1.233,1.2339,1.2365,1.2345,1.2356,1.2339,1.2328,1.2355,1.2351,1.2358,1.2366,1.235,1.2397,1.2385,1.2362,1.2326,1.2384,1.2402,1.241,1.2301,1.2299,1.2298,1.2298,0,0,1.2393,1.2381,1.2391,1.2389,1.2385,1.2399,1.2423,1.243,1.2437,1.2441,1.2457,1.2477,1.2454,1.2457,1.2441,1.2458,1.2508,1.2432,1.2431,1.2443,1.2555,1.257,1.2579,1.2493,1.2495,1.2496,1.2553,0,1.2461,1.2501,1.2481,1.2522,1.2537,1.2503,1.2523,1.2521,1.2512,1.2522,1.2511,1.2523,1.2495,1.2496,1.2511,1.2499,1.253,1.2495,1.2506,1.2506,1.2504,1.2589,1.2606,1.2661,1.2561,1.2562,1.2563,0,1.2547,1.2552,1.2594,1.2583,1.2589,1.2607,1.261,1.2622,1.2618,1.2609,1.2611,1.259,1.2609,1.2576,1.26,1.2577,1.258,1.2575,1.2576,1.2574,1.2536,1.2586,1.2678,1.2685,1.2574,1.2574,1.2573,0,1.2617,1.2635,1.2661,1.2662,1.2651,1.2664,1.266,1.2654,1.2659,1.2661,1.2663,1.2669,1.2671,1.2674,1.2653,1.2632,1.2679,1.2645,1.267,1.267,1.268,1.2679,1.277,1.2688,1.2687,1.2687,1.2687,0,1.2694,1.272,1.2692,1.2708,1.2735,1.2711,1.2739,1.2731,1.2725,1.2738,1.271,1.2722,1.2695,1.2704,1.2688,1.2708,1.271,1.2702,1.2696,1.2702,1.2703,1.2702,1.2696,1.2689,1.2689,1.2689,1.2688,0,1.2776,1.2759,1.2785,1.2772,1.2769,1.2789,1.2777,1.279,1.2777,1.2793,1.2795,1.2776,1.2784,1.2764,1.277,1.2759,1.2787,1.2778,1.2788,1.2784,1.2808,1.2805,1.29,1.2909,1.2824,1.2825,1.2826,0,1.2825,1.2844,1.2832,1.2838,1.2835,1.2846,1.2849,1.2826,1.2831,1.2826,1.2839,1.2844,1.2847,1.2862,1.2847,1.285,1.2838,1.2871,1.2838,1.2842,1.2834,1.2832,1.2832,1.2877,1.2878,1.2879,1.288,0,1.2912,1.2901,1.2908,1.2911,1.2916,1.2917,1.2916,1.2922,1.2897,1.2903,1.2911,1.2913,1.2918,1.2922,1.2922,1.2916,1.2892,1.289,1.2895,1.29,1.2904,1.2898,1.2803,1.2888,1.2887,1.2886,1.2886,1.2885,1.2976,1.299,1.2982,1.2989,1.2986,1.2985,1.2995,1.2983,1.299,1.2991,1.2977,1.2986,1.2979,1.2975,1.2971,1.2977,1.2962,1.2971,1.2972,1.2974,1.2976,1.2905,1.2977,1.2977,1.2977,1.2977,1.2977,0,1.3058,1.3051,1.3058,1.3056,1.3061,1.304,1.3037,1.3042,1.3051,1.3046,1.3049,1.3055,1.3059,1.3044,1.3045,1.3052,1.3041,1.3053,1.305,1.3049,1.2992,1.2985,1.3061,1.3061,1.3061,1.3061,1.3061,1.3061,1.3101,1.3121,1.311,1.3127,1.312,1.3129,1.3128,1.3126,1.3121,1.313,1.3133,1.3123,1.3113,1.3112,1.3114,1.3109,1.3109,1.3124,1.3115,1.3062,1.3053,1.3045,1.3039,1.3125,1.3125,1.3171,1.3171,1.3171]}]]